GW4987 Weather Reports


time (UTC)temp
F
wind
direction
speed
knots
gust
knots
rain 1hr
in
rain 24hr
in
rain mn
in
humidity
%
barometer
mb
20260831232004 74 182 7.0 10.4 0.00 0.00 0.00 56 1021.5
20260831231504 73 210 7.8 11.3 0.00 0.00 0.00 56 1021.5
20260831231003 74 250 7.8 10.4 0.00 0.00 0.00 56 1021.5
20260831230503 75 186 4.3 12.2 0.00 0.00 0.00 55 1021.7
20260831230004 75 213 7.8 11.3 0.00 0.00 0.00 54 1021.5
20260831225504 75 181 9.6 13.0 0.00 0.00 0.00 54 1021.4
20260831225004 75 199 10.4 13.0 0.00 0.00 0.00 53 1021.5
20260831224504 75 205 7.0 8.7 0.00 0.00 0.00 54 1021.4
20260831224003 76 147 5.2 11.3 0.00 0.00 0.00 52 1021.5
20260831223503 76 212 9.6 13.0 0.00 0.00 0.00 52 1021.6
20260831223004 76 260 6.1 9.6 0.00 0.00 0.00 51 1021.7
20260831221004 76 207 7.0 7.8 0.00 0.00 0.00 52 1021.4
20260831220504 77 202 2.6 11.3 0.00 0.00 0.00 52 1021.7
20260831220004 75 217 9.6 10.4 0.00 0.00 0.00 54 1021.6
20260831215504 77 209 6.1 8.7 0.00 0.00 0.00 51 1021.6
20260831215004 78 204 5.2 16.5 0.00 0.00 0.00 50 1021.7
20260831214504 78 202 6.1 13.0 0.00 0.00 0.00 50 1021.8
20260831214004 77 201 11.3 12.2 0.00 0.00 0.00 51 1021.8
20260831213504 78 148 4.3 13.0 0.00 0.00 0.00 51 1021.8
20260831213004 79 191 10.4 13.0 0.00 0.00 0.00 49 1021.8
20260831212504 78 282 2.6 11.3 0.00 0.00 0.00 51 1022.2
20260831212004 78 200 2.6 11.3 0.00 0.00 0.00 52 1022.0
20260831211504 78 216 12.2 14.8 0.00 0.00 0.00 52 1022.1
20260831211003 78 81 2.6 13.0 0.00 0.00 0.00 50 1022.2
20260831210504 76 135 6.1 9.6 0.00 0.00 0.00 52 1022.2
20260831210004 78 150 7.8 9.6 0.00 0.00 0.00 49 1022.3
20260831205503 77 130 8.7 13.0 0.00 0.00 0.00 51 1022.3
20260831205008 77 121 3.5 7.8 0.00 0.00 0.00 49 1022.3
20260831204516 77 79 1.7 6.1 0.00 0.00 0.00 49 1022.5
20260831200004 76 123 7.8 9.6 0.00 0.00 0.00 56 1023.0
20260831195004 74 248 1.7 6.1 0.00 0.00 0.00 60 1022.8
20260831194504 73 117 2.6 9.6 0.00 0.00 0.00 60 1022.9
20260831194004 73 110 4.3 11.3 0.00 0.00 0.00 62 1023.4
20260831193504 72 199 7.0 7.0 0.00 0.00 0.00 62 1023.4
20260831193003 72 170 7.0 10.4 0.00 0.00 0.00 62 1023.4
20260831192503 73 149 2.6 6.1 0.00 0.00 0.00 62 1023.4
20260831192003 72 212 3.5 8.7 0.00 0.00 0.00 64 1023.1
20260831191504 73 202 7.0 7.0 0.00 0.00 0.00 62 1023.2
20260831191004 74 94 0.0 2.6 0.00 0.00 0.00 60 1023.4
20260831190504 72 357 1.7 3.5 0.00 0.00 0.00 62 1023.2
20260831190004 72 291 1.7 7.0 0.00 0.00 0.00 61 1023.4
20260831185504 74 119 4.3 6.1 0.00 0.00 0.00 59 1023.6
20260831185003 73 10 2.6 6.1 0.00 0.00 0.00 62 1023.6
20260831184503 73 106 3.5 3.5 0.00 0.00 0.00 62 1023.7
20260831184004 73 116 7.8 8.7 0.00 0.00 0.00 62 1023.4
20260831183504 72 192 3.5 9.6 0.00 0.00 0.00 63 1023.4
20260831183004 72 97 2.6 11.3 0.00 0.00 0.00 64 1023.6
20260831182504 72 152 2.6 4.3 0.00 0.00 0.00 63 1023.4
20260831182004 72 160 4.3 7.8 0.00 0.00 0.00 63 1023.5
20260831181504 71 144 3.5 9.6 0.00 0.00 0.00 66 1023.2
20260831181004 73 119 11.3 12.2 0.00 0.00 0.00 62 1023.2
20260831180503 72 220 3.5 7.8 0.00 0.00 0.00 64 1023.5
20260831180003 72 141 4.3 8.7 0.00 0.00 0.00 63 1023.2
20260831175504 72 138 2.6 7.8 0.00 0.00 0.00 65 1023.4
20260831173504 70 149 3.5 7.0 0.00 0.00 0.00 68 1023.2
20260831173004 68 111 4.3 13.9 0.00 0.00 0.00 71 1023.0
20260831172504 68 110 6.1 7.8 0.00 0.00 0.00 72 1023.2
20260831172004 68 137 7.0 10.4 0.00 0.00 0.00 72 1023.0
20260831171504 68 144 3.5 8.7 0.00 0.00 0.00 72 1023.4
20260831171004 67 175 4.3 12.2 0.00 0.00 0.00 72 1023.1
20260831170504 67 147 4.3 9.6 0.00 0.00 0.00 73 1022.9
20260831170003 67 115 2.6 11.3 0.00 0.00 0.00 73 1023.0
20260831165503 67 134 1.7 11.3 0.00 0.00 0.00 72 1023.2
20260831165003 67 175 6.1 11.3 0.00 0.00 0.00 71 1023.0
20260831164503 67 136 7.0 13.9 0.00 0.00 0.00 71 1023.0
20260831164004 68 163 4.3 11.3 0.00 0.00 0.00 69 1022.9
20260831163503 68 141 12.2 14.8 0.00 0.00 0.00 67 1022.9
20260831163003 68 135 7.8 10.4 0.00 0.00 0.00 67 1023.0
20260831162504 68 125 4.3 7.0 0.00 0.00 0.00 66 1022.8
20260831162004 68 112 4.3 7.8 0.00 0.00 0.00 63 1022.8
20260831161503 69 118 5.2 6.1 0.00 0.00 0.00 62 1022.6
20260831161004 69 95 3.5 6.1 0.00 0.00 0.00 62 1022.6
20260831153504 68 204 7.8 9.6 0.00 0.00 0.00 59 1022.4
20260831153004 67 131 1.7 4.3 0.00 0.00 0.00 63 1022.4
20260831152504 65 211 9.6 11.3 0.00 0.00 0.00 62 1022.4
20260831152004 65 211 9.6 11.3 0.00 0.00 0.00 62 1022.3
20260831151504 65 211 9.6 11.3 0.00 0.00 0.00 62 1022.3
20260831151004 65 211 9.6 11.3 0.00 0.00 0.00 62 1022.3
20260831144004 63 221 0.0 2.6 0.00 0.00 0.00 65 1022.2
20260831143504 63 221 0.0 2.6 0.00 0.00 0.00 65 1022.1
20260831143004 63 221 0.0 2.6 0.00 0.00 0.00 65 1022.4
20260831142503 63 221 0.0 2.6 0.00 0.00 0.00 65 1022.4
20260831142003 63 221 0.0 2.6 0.00 0.00 0.00 65 1022.4
20260831141504 63 221 0.0 2.6 0.00 0.00 0.00 65 1022.3
20260831135004 62 226 1.7 1.7 0.00 0.00 0.00 67 1022.1
20260831133004 62 226 1.7 1.7 0.00 0.00 0.00 67 1021.9
20260831132504 62 226 1.7 1.7 0.00 0.00 0.00 67 1021.8
20260831132004 62 226 1.7 1.7 0.00 0.00 0.00 67 1021.9
20260831131503 62 226 1.7 1.7 0.00 0.00 0.00 67 1021.6
20260831131004 62 226 1.7 1.7 0.00 0.00 0.00 67 1021.7
20260831130504 62 226 1.7 1.7 0.00 0.00 0.00 67 1021.9
20260831130004 62 226 1.7 1.7 0.00 0.00 0.00 67 1021.5
20260831125503 62 226 1.7 1.7 0.00 0.00 0.00 67 1021.5
20260831111003 59 281 2.6 3.5 0.00 0.00 0.00 76 1020.9
20260831110503 59 281 2.6 3.5 0.00 0.00 0.00 76 1020.9
20260831110004 59 281 2.6 3.5 0.00 0.00 0.00 76 1021.4
20260831104004 59 281 2.6 3.5 0.00 0.00 0.00 76 1021.4
20260831103504 59 281 2.6 3.5 0.00 0.00 0.00 76 1021.3
20260831103005 59 281 2.6 3.5 0.00 0.00 0.00 76 1021.4
20260831102503 59 281 2.6 3.5 0.00 0.00 0.00 76 1021.6
20260831102004 59 281 2.6 3.5 0.00 0.00 0.00 76 1021.5
20260831090004 65 198 7.8 8.7 0.00 0.00 0.00 64 1022.3
20260831085504 65 198 7.8 8.7 0.00 0.00 0.00 64 1022.4
20260831085004 65 198 7.8 8.7 0.00 0.00 0.00 64 1022.1
20260831084504 65 198 7.8 8.7 0.00 0.00 0.00 64 1022.3
20260831084004 65 198 7.8 8.7 0.00 0.00 0.00 64 1022.2
20260831083503 65 198 7.8 8.7 0.00 0.00 0.00 64 1022.0
20260831083003 65 198 7.8 8.7 0.00 0.00 0.00 64 1022.2
20260831082504 65 198 7.8 8.7 0.00 0.00 0.00 64 1022.3
20260831082003 65 198 7.8 8.7 0.00 0.00 0.00 64 1022.0
20260831081503 65 198 7.8 8.7 0.00 0.00 0.00 64 1022.1
20260831081004 65 198 7.8 8.7 0.00 0.00 0.00 64 1022.2
20260831075503 66 95 8.7 9.6 0.00 0.00 0.00 63 1022.3
20260831075003 67 117 7.8 10.4 0.00 0.00 0.00 62 1022.1
20260831074504 67 116 6.1 11.3 0.00 0.00 0.00 58 1022.1
20260831074004 67 200 7.8 14.8 0.00 0.00 0.00 61 1022.0
20260831073504 67 200 7.8 14.8 0.00 0.00 0.00 61 1022.0
20260831073004 67 200 7.8 14.8 0.00 0.00 0.00 61 1022.3
20260831071004 72 330 0.0 2.6 0.00 0.00 0.00 67 1022.2
20260831070504 72 330 0.0 2.6 0.00 0.00 0.00 67 1022.3
20260831070004 72 330 0.0 2.6 0.00 0.00 0.00 67 1022.3
20260831065503 72 330 0.0 2.6 0.00 0.00 0.00 67 1022.1
20260831065004 72 330 0.0 2.6 0.00 0.00 0.00 67 1022.1
20260831064504 72 330 0.0 2.6 0.00 0.00 0.00 67 1022.2
20260831064003 72 330 0.0 2.6 0.00 0.00 0.00 67 1021.9
20260831063503 72 330 0.0 2.6 0.00 0.00 0.00 67 1022.1
20260831063004 72 330 0.0 2.6 0.00 0.00 0.00 67 1021.6
20260831062503 72 330 0.0 2.6 0.00 0.00 0.00 67 1021.3
20260831062003 73 111 2.6 3.5 0.00 0.00 0.00 66 1021.1
20260831061504 73 130 1.7 2.6 0.00 0.00 0.00 64 1021.1
20260831061003 73 142 1.7 1.7 0.00 0.00 0.00 64 1021.1
20260831060504 73 182 2.6 3.5 0.00 0.00 0.00 64 1021.1
20260831060004 73 182 2.6 3.5 0.00 0.00 0.00 64 1021.3
20260831055503 72 215 2.6 3.5 0.00 0.00 0.00 67 1021.1
20260831055003 72 215 2.6 3.5 0.00 0.00 0.00 67 1021.1
20260831054504 72 215 2.6 3.5 0.00 0.00 0.00 67 1021.5
20260831054004 72 215 2.6 3.5 0.00 0.00 0.00 67 1021.4
20260831053504 72 215 2.6 3.5 0.00 0.00 0.00 67 1021.4
20260831053004 72 215 2.6 3.5 0.00 0.00 0.00 67 1021.6
20260831052503 72 215 2.6 3.5 0.00 0.00 0.00 67 1021.7
20260831052004 72 215 2.6 3.5 0.00 0.00 0.00 67 1021.5
20260831051503 72 215 2.6 3.5 0.00 0.00 0.00 67 1021.6
20260831051003 72 215 2.6 3.5 0.00 0.00 0.00 67 1021.6
20260831050504 72 215 2.6 3.5 0.00 0.00 0.00 67 1021.3
20260831050004 72 215 2.6 3.5 0.00 0.00 0.00 67 1021.1
20260831045504 72 232 2.6 5.2 0.00 0.00 0.00 67 1021.3
20260831045004 72 180 2.6 3.5 0.00 0.00 0.00 67 1021.4
20260831044504 72 139 1.7 4.3 0.00 0.00 0.00 67 1021.1
20260831042503 71 165 0.0 2.6 0.00 0.00 0.00 69 1021.5
20260831042003 71 158 1.7 3.5 0.00 0.00 0.00 69 1021.4
20260831041503 71 212 1.7 2.6 0.00 0.00 0.00 70 1021.3
20260831041003 71 212 1.7 2.6 0.00 0.00 0.00 70 1021.4
20260831040503 71 190 2.6 2.6 0.00 0.00 0.00 69 1021.5
20260831040004 71 137 2.6 2.6 0.00 0.00 0.00 70 1021.4
20260831035504 71 202 1.7 2.6 0.00 0.00 0.00 70 1021.4
20260831035004 71 112 0.0 1.7 0.00 0.00 0.00 70 1021.5
20260831034504 71 186 0.0 1.7 0.00 0.00 0.00 70 1021.4
20260831034003 71 271 2.6 2.6 0.00 0.00 0.00 69 1021.5
20260831033504 71 271 2.6 2.6 0.00 0.00 0.00 69 1021.4
20260831031504 72 226 4.3 4.3 0.00 0.00 0.00 67 1020.9
20260831031004 72 226 4.3 4.3 0.00 0.00 0.00 67 1020.8
20260831030504 72 226 4.3 4.3 0.00 0.00 0.00 67 1020.7
20260831030003 72 224 4.3 6.1 0.00 0.00 0.00 66 1020.5
20260831025503 72 224 4.3 6.1 0.00 0.00 0.00 66 1020.5
20260831025004 74 237 2.6 3.5 0.00 0.00 0.00 64 1020.7
20260831023004 74 237 2.6 3.5 0.00 0.00 0.00 64 1020.7
20260831022504 74 237 2.6 3.5 0.00 0.00 0.00 64 1020.6
20260831022004 74 237 2.6 3.5 0.00 0.00 0.00 64 1020.7
20260831020004 74 257 5.2 6.1 0.00 0.00 0.00 63 1020.5
20260831015504 74 245 6.1 6.1 0.00 0.00 0.00 62 1020.3
20260831015004 74 265 7.8 8.7 0.00 0.00 0.00 62 1020.5
20260831014504 74 228 4.3 6.1 0.00 0.00 0.00 61 1020.3
20260831014004 75 256 6.1 6.1 0.00 0.00 0.00 60 1020.4
20260831013504 75 256 6.1 6.1 0.00 0.00 0.00 60 1020.3
20260831011503 76 199 4.3 7.8 0.00 0.00 0.00 58 1020.7
20260831011003 76 255 4.3 9.6 0.00 0.00 0.00 58 1020.4
20260831010504 76 209 3.5 7.0 0.00 0.00 0.00 58 1020.5
20260831010003 76 216 6.1 7.0 0.00 0.00 0.00 58 1020.6
20260831005503 76 233 6.1 9.6 0.00 0.00 0.00 58 1020.4
20260831005004 76 214 7.8 10.4 0.00 0.00 0.00 57 1020.6
20260831004504 76 258 2.6 4.3 0.00 0.00 0.00 57 1020.5
20260831004004 76 200 4.3 5.2 0.00 0.00 0.00 57 1020.5
20260831002004 77 192 7.0 9.6 0.00 0.00 0.00 55 1020.5
20260831001504 77 210 9.6 10.4 0.00 0.00 0.00 55 1020.2
20260831001003 77 206 4.3 6.1 0.00 0.00 0.00 55 1020.3
20260831000504 77 219 5.2 8.7 0.00 0.00 0.00 55 1020.3
20260831000004 77 197 4.3 6.1 0.00 0.00 0.00 54 1020.2
20260830235504 77 219 7.8 7.8 0.00 0.00 0.00 54 1020.2
20260830235004 77 251 4.3 9.6 0.00 0.00 0.00 53 1020.4
20260830234504 78 193 4.3 6.1 0.00 0.00 0.00 53 1020.5
20260830234004 78 204 5.2 11.3 0.00 0.00 0.00 52 1020.6
20260830233504 78 205 3.5 7.0 0.00 0.00 0.00 52 1020.8
20260830233003 78 202 7.8 11.3 0.00 0.00 0.00 51 1020.7
20260830232503 78 219 5.2 8.7 0.00 0.00 0.00 52 1020.5